Time,TemperatureF,DewpointF,PressureIn,WindDirection,WindDirectionDegrees,WindSpeedMPH,WindSpeedGustMPH,Humidity,HourlyPrecipIn,Conditions,Clouds,dailyrainin,SoftwareType,DateUTC
2013-08-22 00:21:00,52.0,52.0,29.95,North,0,0.0,0.0,100,0.00,,,0.00,,2013-08-22 07:21:00,
2013-08-22 00:52:00,52.0,52.0,29.96,North,0,0.0,0.0,100,0.00,,,0.00,,2013-08-22 07:52:00,
2013-08-22 01:22:00,51.0,51.0,29.96,North,0,0.0,0.0,100,0.00,,,0.00,,2013-08-22 08:22:00,
2013-08-22 01:52:00,50.0,50.0,29.95,North,0,0.0,0.0,100,0.00,,,0.00,,2013-08-22 08:52:00,
2013-08-22 02:22:00,50.0,50.0,29.96,North,0,0.0,0.0,100,0.00,,,0.00,,2013-08-22 09:22:00,
2013-08-22 02:54:00,50.0,50.0,29.95,North,0,0.0,0.0,100,0.00,,,0.00,,2013-08-22 09:54:00,
2013-08-22 03:22:00,50.0,50.0,29.95,North,0,0.0,0.0,100,0.00,,,0.00,,2013-08-22 10:22:00,
2013-08-22 05:52:00,51.0,51.0,29.98,North,0,0.0,0.0,100,0.00,,,0.00,,2013-08-22 12:52:00,
2013-08-22 06:22:00,51.0,51.0,29.98,North,0,0.0,0.0,100,0.00,,,0.00,,2013-08-22 13:22:00,
2013-08-22 06:52:00,52.0,52.0,29.98,North,0,0.0,0.0,100,0.00,,,0.00,,2013-08-22 13:52:00,
2013-08-22 07:11:00,52.0,52.0,29.98,North,0,0.0,0.0,100,0.00,,,0.00,,2013-08-22 14:11:00,
2013-08-22 07:21:00,52.0,52.0,29.98,North,0,0.0,0.0,100,0.00,,,0.00,,2013-08-22 14:21:00,
2013-08-22 07:52:00,52.0,52.0,30.00,North,0,0.0,0.0,100,0.00,,,0.00,,2013-08-22 14:52:00,
2013-08-22 08:22:00,52.0,52.0,29.99,North,0,0.0,0.0,100,0.00,,,0.00,,2013-08-22 15:22:00,
2013-08-22 08:54:00,53.0,53.0,29.99,North,0,0.0,0.0,100,0.00,,,0.00,,2013-08-22 15:54:00,
2013-08-22 09:24:00,52.0,52.0,29.98,North,0,0.0,0.0,100,0.00,,,0.00,,2013-08-22 16:24:00,
2013-08-22 09:53:00,53.0,53.0,29.99,North,0,0.0,0.0,100,0.00,,,0.00,,2013-08-22 16:53:00,
2013-08-22 10:23:00,53.0,53.0,29.98,North,0,0.0,0.0,100,0.00,,,0.00,,2013-08-22 17:23:00,
2013-08-22 10:52:00,53.0,53.0,29.98,North,0,0.0,0.0,100,0.00,,,0.00,,2013-08-22 17:52:00,
2013-08-22 11:21:00,54.0,54.0,29.97,North,0,0.0,0.0,100,0.00,,,0.00,,2013-08-22 18:21:00,
2013-08-22 11:52:00,53.0,53.0,29.97,North,0,0.0,0.0,100,0.00,,,0.00,,2013-08-22 18:52:00,
2013-08-22 12:22:00,53.0,53.0,30.00,WSW,254,3.0,10.0,100,0.00,,,0.00,,2013-08-22 19:22:00,
2013-08-22 12:53:00,54.0,54.0,30.00,WSW,257,5.0,10.0,100,0.00,,,0.00,,2013-08-22 19:53:00,
2013-08-22 13:11:00,55.0,55.0,30.00,North,0,0.0,6.0,100,0.00,,,0.00,,2013-08-22 20:11:00,
2013-08-22 13:23:00,55.0,55.0,30.00,North,0,0.0,6.0,100,0.00,,,0.00,,2013-08-22 20:23:00,
2013-08-22 13:52:00,55.0,55.0,29.99,ESE,121,4.0,7.0,100,0.00,,,0.00,,2013-08-22 20:52:00,
2013-08-22 14:22:00,56.0,56.0,29.99,North,0,1.0,11.0,100,0.00,,,0.00,,2013-08-22 21:22:00,
2013-08-22 14:54:00,56.0,56.0,29.98,West,268,2.0,6.0,100,0.00,,,0.00,,2013-08-22 21:54:00,
2013-08-22 15:24:00,56.0,56.0,29.98,NW,315,1.0,5.0,100,0.00,,,0.00,,2013-08-22 22:24:00,
2013-08-22 15:53:00,56.0,56.0,29.98,West,277,0.0,7.0,100,0.00,,,0.00,,2013-08-22 22:53:00,
2013-08-22 16:22:00,56.0,56.0,29.96,North,0,0.0,0.0,100,0.00,,,0.00,,2013-08-22 23:22:00,
2013-08-22 16:52:00,56.0,56.0,29.96,WNW,289,6.0,8.0,100,0.00,,,0.00,,2013-08-22 23:52:00,
2013-08-22 17:23:00,55.0,55.0,29.96,North,0,0.0,0.0,100,0.00,,,0.00,,2013-08-23 00:23:00,
2013-08-22 17:52:00,56.0,56.0,29.96,North,0,0.0,0.0,100,0.00,,,0.00,,2013-08-23 00:52:00,
2013-08-22 18:21:00,57.0,57.0,29.97,North,0,0.0,0.0,100,0.00,,,0.00,,2013-08-23 01:21:00,
2013-08-22 18:52:00,57.0,57.0,29.98,West,268,2.0,9.0,100,0.00,,,0.00,,2013-08-23 01:52:00,
2013-08-22 19:22:00,54.0,54.0,29.99,SSW,210,0.0,8.0,100,0.00,,,0.00,,2013-08-23 02:22:00,
2013-08-22 19:52:00,55.0,55.0,29.99,SSW,201,0.0,7.0,100,0.00,,,0.00,,2013-08-23 02:52:00,
2013-08-22 20:22:00,54.0,54.0,29.99,North,0,0.0,0.0,100,0.00,,,0.00,,2013-08-23 03:22:00,
2013-08-22 20:55:00,54.0,54.0,29.98,SSE,151,0.0,4.0,100,0.00,,,0.00,,2013-08-23 03:55:00,
2013-08-22 21:24:00,54.0,54.0,29.98,North,0,0.0,0.0,100,0.00,,,0.00,,2013-08-23 04:24:00,
2013-08-22 21:54:00,54.0,54.0,29.98,North,0,0.0,0.0,100,0.00,,,0.00,,2013-08-23 04:54:00,
2013-08-22 22:22:00,54.0,54.0,29.99,North,0,0.0,0.0,100,0.00,,,0.00,,2013-08-23 05:22:00,
2013-08-22 22:52:00,54.0,54.0,29.98,North,0,0.0,0.0,100,0.00,,,0.00,,2013-08-23 05:52:00,
2013-08-22 23:21:00,54.0,54.0,29.98,SW,221,0.0,6.0,100,0.00,,,0.00,,2013-08-23 06:21:00,
2013-08-22 23:41:00,54.0,54.0,29.98,North,0,0.0,0.0,100,0.00,,,0.00,,2013-08-23 06:41:00,
2013-08-22 23:52:00,54.0,54.0,29.99,North,0,0.0,0.0,100,0.00,,,0.00,,2013-08-23 06:52:00,